This is the latest recevied weather packets stored in our database for station/object K8DJB-1. If no packets are shown the sender has not sent any weather packets the latest 10 day(s).
| Time | Temp. | Humidity | Pressure | Rain* | Wind** | Luminosity | Snow |
|---|---|---|---|---|---|---|---|
| 1778082937 | 10.56° C | 44% | 1012.8 hPa | 0 mm | - | - | - |
| 1778082637 | 10.56° C | 44% | 1012.7 hPa | 0 mm | - | - | - |
| 1778082337 | 10.56° C | 44% | 1012.7 hPa | 0 mm | - | - | - |
| 1778082037 | 10.56° C | 43% | 1012.7 hPa | 0 mm | - | - | - |
| 1778081737 | 10.56° C | 43% | 1012.7 hPa | 0 mm | - | - | - |
| 1778081437 | 10° C | 44% | 1012.7 hPa | 0 mm | - | - | - |
| 1778081137 | 10° C | 43% | 1012.6 hPa | 0 mm | - | - | - |
| 1778080837 | 10.56° C | 43% | 1012.5 hPa | 0 mm | - | - | - |
| 1778080537 | 10.56° C | 43% | 1012.7 hPa | 0 mm | - | - | - |
| 1778080237 | 10.56° C | 43% | 1012.8 hPa | 0 mm | - | - | - |
| 1778079937 | 10° C | 45% | 1012.8 hPa | 0 mm | - | - | - |
| 1778079637 | 10° C | 48% | 1012.8 hPa | 0 mm | - | - | - |
| 1778079337 | 10° C | 47% | 1012.5 hPa | 0 mm | - | - | - |
| 1778079037 | 10° C | 44% | 1012.6 hPa | 0 mm | - | - | - |
| 1778078737 | 10° C | 48% | 1012.5 hPa | 0 mm | - | - | - |
| 1778078437 | 10° C | 46% | 1012.5 hPa | 0 mm | - | - | - |
| 1778078137 | 9.44° C | 48% | 1012.4 hPa | 0 mm | - | - | - |
| 1778077837 | 9.44° C | 47% | 1012.3 hPa | 0 mm | - | - | - |
| 1778077537 | 9.44° C | 46% | 1012.2 hPa | 0 mm | - | - | - |
| 1778077237 | 10° C | 44% | 1012.2 hPa | 0 mm | - | - | - |
| 1778076937 | 9.44° C | 45% | 1012.2 hPa | 0 mm | - | - | - |
| 1778076637 | 9.44° C | 50% | 1012.1 hPa | 0 mm | - | - | - |
| 1778076337 | 9.44° C | 52% | 1012.2 hPa | 0 mm | - | - | - |
| 1778076037 | 8.89° C | 53% | 1012.1 hPa | 0 mm | - | - | - |
| 1778075737 | 8.89° C | 57% | 1012.2 hPa | 0 mm | - | - | - |
* Rain latest hour (hover to see other rain measurements)
** Current wind speed in m/s (hover to see current wind gust speed)